#timestamp,LO_Frequency,Hit,StdDev 
1575882015.4,286046998.1,N
1575882035.2,286047002.0,N
1575882055.1,286047006.9,N
1575882056.0,286047006.9,N
1575882075.8,286047006.3,N
1575882095.7,286047008.3,N
1575882115.5,286047011.0,N
1575882135.3,286047018.7,N
1575882155.2,286047019.0,N
1575882175.0,286047011.0,N
1575882175.9,286047011.0,N
1575882195.8,286047008.0,N
1575882215.6,286047005.7,N
1575882235.4,286047003.6,N
1575882255.3,286047002.4,N
1575882275.1,286046996.8,N
1575882295.9,286046993.7,N
1575882315.7,286046999.4,N
1575882335.5,286046996.9,N
1575882355.4,286046995.9,N
1575882375.2,286046990.6,N
1575882395.0,286046985.3,N
1575882396.0,286046985.3,N
1575882415.8,286046988.7,N
1575882435.6,286046994.1,N
1575882455.5,286046991.3,N
1575882475.3,286046985.2,N
1575882495.1,286046988.8,N
1575882515.9,286046984.4,N
1575882535.7,286046985.6,N
1575882555.6,286046978.7,N
1575882575.4,286046972.9,N
1575882595.2,286046977.2,N
1575882615.1,286046976.4,N
1575882616.0,286046976.4,N
1575882635.8,286046971.5,N
1575882655.6,286046967.7,N
1575882675.5,286046967.9,N
1575882695.3,286046972.3,N
1575882715.2,286046967.8,N
1575882735.9,286046968.9,N
1575882755.7,286046960.5,Y
1575882775.6,286046970.7,P
1575882795.4,286046966.6,P
1575882815.3,286046966.5,P
1575882835.1,286046966.4,Y
1575882836.0,286046966.4,P
1575882855.8,286047000.4,N
1575882875.7,286046998.7,N
1575882895.5,286046992.2,N
1575882915.4,286046987.8,N
1575882935.2,286046987.7,N
1575882955.0,286046985.0,N
1575882955.9,286046985.0,N
1575882975.8,286046982.9,N
1575882995.6,286046981.2,N
1575883015.4,286046978.5,N
1575883035.3,286046971.5,Y
1575883055.1,286046986.7,P
1575883075.9,286046986.7,P
1575883095.7,286046986.7,P
1575883115.5,286046985.6,Y
1575883135.4,286047000.6,P
1575883155.2,286046997.0,N
1575883175.1,286046997.7,N
1575883176.0,286046997.7,N
1575883195.8,286046993.8,N
1575883215.6,286046994.5,N
1575883235.5,286046996.2,N
1575883255.3,286046995.6,N
1575883275.1,286046994.4,N
1575883295.9,286046991.5,N
1575883315.7,286046995.2,N
1575883335.6,286047004.0,N
1575883355.4,286047007.4,N
1575883375.2,286047004.1,N
1575883395.1,286047001.2,N
1575883396.0,286047001.2,N
1575883415.8,286047002.5,N
1575883435.7,286047002.8,N
1575883455.5,286047007.1,N
1575883475.3,286047001.7,N
1575883495.2,286047001.2,N
1575883515.0,286046997.1,N
1575883515.9,286046997.1,N
1575883535.7,286046995.8,N
1575883555.6,286046995.6,N
1575883575.4,286046993.6,N
1575883595.3,286046993.3,N
1575883615.1,286046995.7,N
1575883635.8,286046996.8,N
1575883655.7,286047000.9,N
1575883675.5,286046999.8,N
1575883695.4,286047001.2,N
1575883715.2,286047000.5,N
1575883735.0,286046999.1,N
1575883735.9,286046999.1,N
1575883755.8,286046995.9,N
1575883775.6,286046990.7,N
1575883795.5,286046996.0,N
1575883815.3,286046993.8,N
1575883835.1,286046996.6,N
1575883855.9,286047010.5,N
1575883875.7,286047015.3,Y
1575883895.5,286047017.4,P
1575883915.4,286047020.6,N
1575883935.2,286047020.1,N
1575883955.1,286047013.3,N
1575883956.0,286047013.3,N
1575883975.8,286047007.8,N
1575883995.6,286047005.5,N
1575884015.5,286047000.3,N
1575884035.3,286046996.6,N
1575884055.1,286047015.2,N
1575884075.9,286047018.6,N
1575884095.7,286047015.2,N
1575884115.6,286047015.4,N
1575884135.4,286047010.3,N
1575884155.2,286047007.9,N
1575884175.1,286047005.9,N
1575884176.0,286047005.9,N
1575884195.8,286047000.8,N
1575884215.7,286046998.4,N
1575884235.5,286046996.5,N
1575884255.3,286046996.3,N
1575884275.2,286046999.2,N
1575884295.0,286047002.4,N
1575884295.9,286047002.4,N
1575884315.7,286047002.3,N
1575884335.6,286047001.6,N
1575884355.4,286046999.4,N
1575884375.3,286046996.1,N
1575884395.1,286046988.9,N
1575884396.0,286046988.9,N
1575884415.8,286046991.1,N
1575884435.7,286046986.4,N
1575884455.5,286046984.5,N
1575884475.4,286046986.6,N
1575884495.2,286046986.0,N
1575884515.0,286046981.0,N
1575884515.9,286046981.0,N
1575884535.8,286046980.2,N
1575884555.6,286046981.5,N
1575884575.4,286046979.9,N
1575884595.3,286046978.0,N
1575884615.1,286046976.5,N
1575884635.9,286046973.4,N
1575884655.7,286046972.1,N
1575884675.5,286046969.0,N
1575884695.4,286046964.9,Y
1575884715.2,286046976.7,P
1575884735.1,286046983.1,N
1575884736.0,286046983.1,P
1575884755.8,286046984.0,Y
1575884775.6,286047001.1,P
1575884795.5,286046996.4,N
1575884815.3,286046991.6,N
1575884835.2,286046984.2,N
1575884855.9,286046984.0,N
1575884875.7,286046984.9,N
1575884895.6,286046985.9,N
1575884915.4,286046986.6,N
1575884935.2,286046987.5,N
1575884955.1,286046988.9,N
1575884956.0,286046988.9,N
1575884975.8,286046994.8,N
1575884995.7,286046993.8,N
1575885015.5,286046994.5,N
1575885065.4,286046989.6,E
1575885075.3,286046992.0,N
1575885095.1,286046998.3,P
1575885115.9,286046998.5,N
1575885135.7,286047001.8,N
1575885155.5,286047002.2,N
1575885175.4,286047001.4,N
1575885195.2,286047000.5,N
1575885215.1,286046998.9,N
1575885216.0,286046998.9,N
1575885235.8,286046999.1,N
1575885255.6,286047001.2,N
1575885275.5,286047000.4,N
1575885295.3,286046998.7,N
1575885315.2,286046996.7,N
1575885335.9,286046995.0,N
1575885355.7,286046995.0,N
1575885375.6,286046992.1,N
1575885395.4,286046987.1,Y
1575885415.2,286046988.4,P
1575885435.1,286046986.1,N
1575885436.0,286046986.1,N
1575885455.8,286046985.1,N
1575885475.7,286046985.2,Y
1575885495.5,286046997.2,P
1575885515.3,286046993.6,N
1575885535.2,286046994.8,N
1575885555.0,286046993.5,N
1575885555.9,286046993.5,N
1575885575.8,286046994.6,N
1575885595.6,286046995.5,N
